Wind_Speed
17 17 15 13 14 16 16 17 17 19 23 26 29 32 32 32 32 31 31 33 34 34 34 34 33 34 34 32 31 30 29 28 27 27 25 23 22 22 22 21 21 21 20 20 20 20 20 18 19 19 18 17 15 14 15 16 16 16 14 14 14 13 13
17 16 16 15 15 17 17 16 17 20 23 25 28 31 32 32 33 33 32 34 35 35 35 35 35 35 34 33 31 31 30 29 28 27 26 25 24 23 23 22 22 21 21 21 20 21 21 20 20 21 21 20 18 17 18 18 19 17 16 16 15 14 14
17 15 16 15 14 15 16 16 17 21 25 26 28 31 33 34 35 35 34 34 35 35 35 35 36 35 35 33 32 31 32 30 29 29 27 26 25 24 23 23 23 23 22 21 21 22 23 22 22 22 22 22 21 21 21 20 20 19 17 17 16 15 16
18 17 17 15 14 13 13 15 15 20 27 29 31 33 35 36 36 36 35 35 35 35 35 36 36 36 35 34 33 32 32 32 30 30 28 27 26 25 24 24 24 24 24 23 23 23 24 24 24 23 23 23 23 23 22 21 21 21 19 18 18 17 16
19 19 17 14 13 12 12 14 15 19 26 30 32 34 35 36 36 35 35 35 35 36 37 36 35 35 35 34 33 32 33 33 32 31 29 28 27 27 27 26 25 25 25 25 25 25 25 25 26 25 25 25 24 23 23 22 21 22 21 19 19 18 17
19 18 16 14 14 14 14 16 18 22 27 30 31 32 34 35 36 36 35 35 35 35 36 35 34 34 34 34 34 32 32 33 33 32 30 29 29 29 28 28 27 27 27 27 27 27 27 27 27 28 27 26 25 24 24 24 23 23 23 21 20 20 18
17 15 14 14 13 14 16 16 16 22 27 29 30 31 33 35 36 37 35 34 35 35 35 35 34 34 35 35 34 33 33 33 34 33 31 30 30 30 30 29 29 29 29 29 29 29 29 29 29 29 29 27 26 25 26 26 25 24 25 24 22 21 20
14 15 13 14 14 14 14 12 12 16 21 26 28 30 33 35 35 36 36 35 35 35 35 36 35 35 35 35 34 34 33 33 34 33 32 31 31 31 31 31 31 31 29 29 30 31 31 31 31 31 31 30 29 28 28 28 27 26 26 26 24 23 22
16 16 14 14 14 13 13 12 13 15 19 24 27 29 32 33 34 36 36 36 36 35 35 35 34 34 35 35 34 34 34 33 33 33 33 32 32 32 31 31 31 31 30 30 30 31 32 33 34 34 34 33 32 31 30 30 30 28 27 28 27 26 25
15 15 14 15 15 14 13 13 13 15 17 21 24 26 29 31 31 33 35 35 35 36 36 35 33 33 34 34 33 34 34 33 33 33 33 32 33 33 31 30 30 31 31 31 30 31 33 34 34 35 35 35 34 33 33 32 32 30 29 29 29 28 27
15 14 13 16 16 15 14 13 14 14 15 17 21 24 27 30 30 31 34 35 35 35 36 35 33 32 33 34 33 34 35 35 33 33 33 33 32 32 31 29 28 30 32 32 31 32 34 35 35 35 36 37 36 36 35 34 34 33 31 30 29 29 28
15 13 13 15 15 15 14 12 13 15 14 15 21 24 26 30 30 30 32 34 34 34 34 35 34 33 33 33 33 35 36 36 34 33 34 34 32 31 31 30 29 30 31 32 31 32 33 35 36 36 37 37 37 37 37 36 36 35 33 31 30 29 28
11 12 12 13 13 13 13 12 13 15 14 16 21 25 26 28 30 29 30 32 33 33 34 34 34 34 33 33 33 35 36 36 36 34 34 34 34 31 30 30 30 30 31 32 32 31 31 34 36 36 37 37 37 37 37 36 35 35 34 31 30 29 29
11 12 11 11 10 11 11 11 12 14 13 15 20 23 24 27 30 29 29 31 32 32 33 34 34 34 34 33 32 33 35 36 36 35 34 34 34 33 31 30 31 30 31 32 31 30 30 31 33 35 36 37 37 37 37 36 34 34 34 31 29 29 29
10 12 12 11 11 11 10 9 10 12 12 13 17 20 22 25 28 28 27 30 32 31 31 34 34 34 34 33 32 32 35 35 35 35 34 33 33 33 32 30 30 30 30 31 31 30 28 28 29 31 33 34 35 34 33 33 33 33 32 31 29 29 29
11 10 11 11 10 10 9 10 11 12 12 13 14 18 20 22 26 27 27 28 31 31 31 34 34 33 33 33 32 32 33 33 33 32 32 32 32 32 32 30 28 28 28 29 30 30 27 26 27 27 28 29 32 32 30 30 31 31 32 32 32 31 29
16 14 13 13 12 11 10 10 11 12 13 14 15 18 21 22 24 26 26 27 30 31 30 33 35 33 32 33 32 32 33 32 31 31 31 30 30 30 30 28 26 26 26 25 27 28 27 26 26 27 26 26 28 29 28 29 31 33 34 35 35 33 29
15 14 16 15 13 13 13 12 13 14 15 15 16 20 22 22 23 26 27 28 30 30 29 32 34 33 32 32 32 32 32 32 30 29 29 29 28 28 27 26 24 23 23 23 23 26 26 25 25 27 27 26 26 27 28 29 31 33 35 36 35 32 28
14 12 14 16 15 15 16 15 15 16 16 16 19 23 26 25 24 26 27 28 30 30 28 30 33 33 31 31 32 32 32 31 29 28 28 28 27 25 25 25 24 22 22 22 21 23 25 24 23 24 26 27 27 27 27 27 28 31 34 35 35 32 27
13 13 12 14 16 16 15 14 14 15 17 21 24 27 28 27 25 26 27 27 28 29 27 28 31 31 30 30 30 31 31 30 28 27 26 26 25 25 24 24 24 22 21 20 19 20 22 23 21 20 23 26 27 27 26 26 28 31 32 34 35 32 27
11 12 10 10 14 17 16 15 15 15 17 23 27 26 26 26 26 26 26 26 28 29 26 27 29 29 29 30 29 30 30 29 27 26 25 25 25 24 23 22 22 21 19 17 16 17 20 21 20 19 20 23 25 26 25 25 27 30 31 33 34 33 29
12 12 10 7 10 14 16 16 17 18 20 23 25 25 25 27 27 26 26 27 29 28 25 27 28 28 29 29 28 29 29 28 27 25 25 25 24 22 21 20 20 19 18 18 16 15 16 19 20 19 19 20 22 24 24 23 24 27 31 33 33 33 32
17 15 13 11 10 11 18 22 22 23 24 25 26 27 27 27 28 27 26 27 28 27 26 26 26 27 28 28 27 28 28 27 26 24 24 23 22 20 19 18 17 17 18 19 17 13 12 16 19 19 18 19 20 21 22 22 22 26 30 31 30 30 30
20 20 17 14 14 12 17 24 25 26 28 27 27 28 29 29 29 27 25 27 28 27 26 25 25 26 26 26 26 26 26 25 24 23 23 22 20 19 18 17 16 16 17 17 16 13 13 16 17 16 16 16 18 21 21 21 23 27 29 28 26 26 27
21 23 19 17 20 17 16 23 26 26 27 26 25 29 31 31 29 27 25 26 27 26 25 25 26 26 26 26 26 25 25 25 24 23 23 22 20 19 19 17 16 15 14 14 12 11 13 16 15 13 13 15 19 22 21 20 23 25 25 24 24 23 25
16 18 18 19 21 16 17 22 22 20 21 22 25 30 32 31 28 25 24 26 27 26 25 26 27 26 27 27 26 26 25 25 24 24 23 22 21 20 19 18 16 14 13 12 10 10 12 15 15 14 13 15 19 23 24 22 22 23 23 23 23 23 25
7 8 13 15 9 10 15 16 16 17 18 22 25 28 30 29 25 22 23 25 25 25 26 28 28 27 28 28 27 26 25 24 24 23 22 22 21 20 19 18 16 15 14 11 10 10 11 13 13 13 14 14 15 19 23 23 22 23 25 25 24 23 25
8 12 10 6 13 18 14 11 13 15 16 20 24 26 28 28 24 22 23 23 23 26 29 30 30 29 29 28 27 26 24 24 24 23 21 21 21 20 18 17 16 15 14 11 10 11 11 12 13 12 13 14 15 17 20 22 22 23 24 25 25 25 26
6 8 6 3 12 16 14 11 11 13 17 20 24 25 26 25 22 22 22 21 23 29 31 31 31 30 29 28 27 26 25 25 24 22 21 22 22 20 18 17 16 17 16 13 11 11 12 14 14 13 13 16 17 17 17 18 21 23 23 23 25 25 25
3 10 9 6 7 11 12 11 11 14 18 21 23 24 24 24 22 21 19 21 27 31 32 32 32 31 29 28 26 25 25 25 24 23 23 24 23 21 19 17 17 17 17 14 11 11 13 15 15 15 16 16 15 15 14 14 18 22 22 21 23 24 24
2 7 10 9 9 11 12 12 13 14 16 18 21 22 23 24 25 21 19 24 29 32 32 32 31 30 29 27 26 26 26 24 23 23 24 24 24 23 21 19 17 17 16 13 13 13 14 15 16 16 15 14 13 13 13 12 14 18 20 20 21 22 23
3 4 9 10 9 12 14 15 15 14 14 17 20 21 20 24 26 24 23 27 30 31 31 31 30 29 27 26 26 26 26 23 22 22 23 23 23 23 22 21 19 18 16 14 14 15 15 16 16 15 14 13 12 12 12 12 12 16 18 19 20 21 22
9 5 4 10 12 13 13 13 13 12 12 15 20 23 23 24 26 26 27 29 28 29 30 31 29 27 25 24 24 24 22 21 20 20 20 19 19 19 20 20 19 18 17 16 15 15 15 15 15 14 13 13 13 13 12 11 12 14 16 18 20 22 23
11 13 10 2 8 12 13 11 11 13 12 13 20 24 24 24 26 27 28 27 26 28 29 28 26 24 22 21 21 21 20 19 20 19 17 15 14 15 16 17 17 17 17 16 15 16 17 16 14 13 14 14 13 13 13 12 12 14 16 17 20 22 22
9 10 12 14 12 9 13 12 12 14 15 16 20 23 23 24 26 26 26 26 26 28 28 26 25 23 21 20 20 19 19 19 19 17 15 14 14 15 15 13 14 15 14 12 11 13 15 14 12 14 15 14 13 13 12 12 12 14 15 15 18 20 20
9 10 10 12 13 10 10 13 15 17 19 19 21 22 23 23 23 23 24 24 25 27 29 26 24 22 21 20 19 19 19 18 17 16 15 14 16 18 16 13 12 13 13 11 8 8 9 11 13 15 14 13 13 14 13 11 11 13 13 12 13 15 17
4 2 2 3 6 2 5 13 18 19 19 20 21 21 21 21 22 22 22 23 24 27 27 25 22 21 19 18 18 18 18 17 17 16 15 14 16 19 19 17 15 13 11 10 8 8 9 12 14 15 14 13 14 15 13 9 9 12 13 12 13 13 14
5 9 10 9 7 6 8 14 18 18 18 19 20 20 20 21 21 21 21 22 23 23 23 23 21 19 18 18 20 20 18 17 18 17 15 15 16 17 17 17 17 14 11 10 9 10 11 13 13 14 14 13 12 14 13 11 10 12 14 14 15 15 14
Wind_Direction
194 190 190 193 191 192 191 188 189 196 195 189 188 190 192 193 192 191 189 187 187 188 188 189 189 188 189 191 193 194 194 194 195 195 195 194 193 194 195 192 189 189 190 189 189 190 190 190 192 190 187 188 189 190 193 193 194 198 199 189 181 183 188
187 187 190 194 193 193 192 186 187 192 192 188 187 190 193 194 192 190 190 187 188 189 189 189 190 190 190 192 193 194 195 195 195 196 196 196 195 195 196 195 192 191 191 191 189 189 190 190 190 189 186 185 189 196 197 197 197 198 200 199 194 191 194
183 183 187 193 192 192 191 188 190 192 191 189 187 189 193 195 193 191 189 187 187 189 190 191 192 192 191 191 193 194 195 195 195 197 196 196 197 197 197 197 196 195 195 194 191 189 190 191 190 189 187 186 189 196 199 199 197 197 199 200 199 199 198
180 183 183 189 187 187 189 190 194 193 192 194 191 190 193 194 194 193 190 189 187 187 190 192 192 193 192 191 193 194 195 196 197 198 198 198 198 198 198 198 197 197 198 198 194 191 191 192 191 190 190 189 192 196 198 198 197 197 200 200 201 204 203
176 184 182 181 178 178 185 192 198 195 194 197 194 191 193 192 193 194 192 190 189 189 191 193 193 194 193 192 193 194 196 196 197 199 199 198 199 199 199 199 198 197 198 198 195 193 193 192 191 192 193 194 195 196 196 197 197 198 200 202 202 203 203
180 183 176 173 175 176 182 194 201 198 197 199 196 191 192 193 193 194 193 190 190 191 192 192 193 192 192 192 193 195 196 196 197 199 199 199 198 199 201 200 199 199 199 198 196 195 195 193 192 193 195 196 196 196 196 197 198 198 200 203 203 201 202
178 174 169 169 175 178 181 189 196 198 198 200 199 194 193 195 195 194 194 191 190 191 191 192 193 191 192 192 193 194 194 196 198 198 199 199 199 200 202 202 202 201 200 198 197 197 197 195 194 195 196 196 196 196 196 196 197 199 200 202 204 203 202
160 161 172 172 174 178 180 178 180 194 201 201 201 197 195 195 194 193 193 191 191 191 191 192 192 191 191 191 192 194 194 195 197 198 199 199 201 202 202 203 204 202 201 199 198 198 198 196 195 196 196 197 197 197 197 196 197 198 199 201 203 204 204
162 165 175 171 172 176 180 176 174 189 203 204 203 199 195 195 194 193 192 190 190 191 191 192 191 190 190 190 192 193 193 194 195 196 198 199 201 203 203 203 204 203 202 200 199 199 199 198 197 197 198 198 198 197 197 197 197 197 198 200 201 203 204
162 164 167 167 172 177 182 181 178 189 198 200 201 196 193 194 194 193 191 190 191 191 191 191 190 189 188 189 192 192 192 193 194 194 195 198 200 202 203 203 202 203 203 202 201 201 201 200 200 199 199 198 198 197 197 197 197 198 199 200 201 203 204
150 160 164 168 173 174 179 180 182 192 194 189 193 192 190 193 195 194 192 191 191 191 191 190 189 188 187 188 190 190 191 192 193 194 195 197 200 201 202 202 200 201 203 204 204 204 203 202 201 201 200 199 198 198 197 197 198 198 199 201 202 203 204
149 161 162 168 171 171 177 183 186 190 186 182 187 190 189 191 195 196 195 193 192 191 189 189 188 187 185 186 188 189 191 193 193 195 196 198 201 202 203 202 201 202 202 202 204 205 204 202 202 202 202 201 200 200 198 198 198 198 198 199 202 203 204
150 161 166 164 165 168 174 184 188 184 180 180 185 189 189 190 193 196 195 195 194 191 188 188 188 186 184 185 188 189 191 193 195 196 197 200 202 203 203 203 204 205 203 201 203 205 204 202 203 205 205 203 202 202 200 199 198 197 196 197 200 202 203
150 156 161 156 157 167 173 176 179 178 176 179 184 188 188 189 194 197 196 195 195 192 188 187 187 185 183 185 188 189 191 193 196 198 199 201 203 204 204 205 206 207 204 201 203 207 205 202 203 205 206 205 204 203 202 200 198 198 197 196 198 201 204
156 155 153 156 163 171 174 169 168 170 173 176 182 187 188 189 194 197 196 194 195 193 189 186 186 185 182 184 187 189 190 193 196 198 200 201 202 204 205 206 207 207 204 202 204 208 208 205 204 205 205 206 205 204 203 201 199 199 196 195 199 202 204
189 178 158 165 171 173 177 170 164 168 169 174 183 188 190 191 193 196 195 192 193 195 189 184 185 184 182 183 186 187 188 191 195 197 199 199 201 203 205 206 207 206 204 203 205 206 208 209 206 202 202 204 204 204 202 200 201 200 195 197 202 203 203
207 189 169 177 177 175 183 176 167 169 171 177 186 190 193 193 192 194 195 192 193 195 189 182 182 183 182 182 184 184 186 189 193 195 196 198 199 202 203 204 206 205 204 205 205 204 208 211 207 201 199 200 202 203 201 201 204 201 197 201 206 204 200
211 187 170 176 177 176 182 180 174 175 178 181 186 189 193 194 192 194 195 193 193 194 189 181 180 181 181 180 181 182 183 187 190 191 192 195 197 199 201 202 203 203 205 208 208 205 207 212 210 206 203 198 197 199 200 203 206 202 200 205 207 203 200
217 203 177 175 181 183 181 181 180 180 182 184 187 190 192 192 193 196 196 191 190 193 188 179 178 179 179 178 178 179 181 184 186 187 189 192 195 196 197 199 201 202 205 210 213 211 210 212 214 213 208 201 198 199 200 203 205 203 205 209 207 201 197
226 225 204 180 180 182 179 180 183 182 183 185 188 191 190 191 193 197 197 190 187 192 188 177 175 177 175 176 177 177 180 182 183 184 186 189 191 192 195 197 198 200 203 208 213 214 211 212 213 213 210 205 201 198 196 201 205 205 207 209 205 199 194
234 232 225 186 174 178 180 181 181 181 184 186 188 187 184 187 191 193 194 188 184 189 186 173 171 174 174 175 176 176 178 179 180 181 183 184 186 190 194 195 194 196 198 203 207 209 210 211 210 209 209 206 201 195 194 201 205 207 209 209 204 197 195
245 244 241 214 186 178 177 182 182 181 183 181 181 182 182 185 189 190 190 185 182 184 180 169 169 172 174 175 175 175 176 176 177 179 178 179 182 186 188 190 191 192 194 199 205 206 208 209 208 205 202 199 196 193 195 199 204 208 210 208 202 199 201
260 259 254 246 235 201 181 183 182 177 175 174 176 180 181 183 185 186 184 180 178 178 173 168 170 172 173 174 174 174 175 175 175 174 173 175 178 180 182 185 188 190 192 199 205 205 199 197 197 196 194 193 194 195 196 199 204 207 205 202 200 200 205
257 260 260 256 253 230 188 182 180 172 169 171 175 177 176 177 181 181 178 175 175 174 168 167 170 172 172 171 171 172 173 174 173 169 169 172 174 175 180 183 185 187 190 194 199 199 192 185 182 182 185 191 195 196 194 195 198 201 199 198 199 202 208
244 247 247 245 248 240 195 175 172 168 166 169 172 173 172 174 177 177 175 173 171 169 168 168 170 169 169 169 169 170 170 170 170 167 167 171 174 176 178 179 180 182 183 186 189 187 181 179 175 174 185 198 202 199 195 189 190 195 197 198 203 210 215
245 234 228 236 244 227 179 165 162 160 164 168 170 170 169 170 173 174 173 170 167 167 168 167 166 165 165 166 166 165 165 167 167 166 167 170 172 173 172 173 175 174 169 169 171 166 164 169 171 174 188 203 206 205 203 198 197 203 207 210 215 218 213
313 284 247 234 211 147 140 148 150 154 163 167 167 167 165 166 168 169 170 168 167 166 163 161 161 160 160 161 160 159 161 162 162 164 166 169 169 165 165 169 171 168 161 156 161 169 168 168 173 181 190 199 201 204 209 210 209 212 216 218 221 216 208
23 352 305 225 141 127 131 137 139 148 159 163 164 163 162 163 163 163 168 169 164 160 157 155 154 153 152 153 153 154 156 156 158 161 164 165 165 162 163 166 167 168 168 165 171 181 180 180 186 190 193 200 203 206 213 215 211 213 216 215 214 211 209
73 55 21 79 122 132 137 134 137 153 161 164 166 162 159 159 157 160 167 165 155 151 149 147 146 144 144 145 146 148 150 151 154 159 159 160 161 159 159 160 160 165 169 169 173 178 176 181 190 193 197 206 209 211 215 212 208 211 215 213 210 211 212
97 111 113 109 120 131 133 133 146 160 163 164 164 160 157 156 154 156 158 152 145 142 140 138 139 137 136 138 138 140 145 148 152 155 156 157 158 156 153 152 153 158 161 165 176 181 180 184 192 198 204 204 199 198 202 201 201 206 212 214 215 215 217
68 115 125 129 130 131 135 142 149 154 156 154 151 151 154 154 149 144 141 138 137 135 133 133 134 132 132 134 135 138 143 147 150 151 152 155 157 155 151 148 150 155 158 168 184 190 190 190 193 202 206 194 178 179 185 186 189 196 203 210 213 212 212
288 149 133 133 134 136 142 150 154 152 147 138 132 132 139 142 136 129 127 130 131 130 130 130 130 130 132 134 137 141 143 142 144 147 150 152 154 152 150 149 151 155 164 181 195 197 195 193 194 200 199 184 175 177 177 175 176 182 189 196 198 201 205
315 316 131 137 142 147 150 154 153 145 133 125 123 123 123 124 123 122 126 131 131 129 129 129 128 129 130 132 135 138 138 135 135 139 142 145 146 145 147 151 156 161 172 188 198 198 197 199 200 197 188 180 179 174 167 168 175 180 185 188 193 198 200
3 346 338 35 121 132 135 130 125 123 119 120 126 125 120 120 126 132 134 133 130 126 123 123 123 123 123 124 125 127 130 132 132 133 134 138 141 144 148 157 166 171 179 191 198 197 200 206 203 188 179 180 179 170 164 167 175 184 191 195 198 199 196
26 15 352 346 3 59 96 104 109 115 116 116 120 121 120 123 130 133 129 125 123 121 118 117 119 121 121 122 123 126 131 134 133 133 133 132 135 139 142 155 167 169 170 178 187 195 205 207 189 172 173 177 173 167 170 179 187 197 203 202 199 199 197
12 36 27 352 343 13 76 102 108 107 107 108 111 115 118 120 121 120 118 119 120 120 119 120 122 123 126 132 137 139 142 141 140 142 142 138 137 136 130 129 140 150 155 159 160 176 196 188 169 163 167 171 169 169 176 189 199 202 201 195 193 197 199
332 64 117 252 269 284 99 104 103 101 102 107 111 113 112 112 111 111 113 118 121 123 125 128 129 130 137 143 144 144 147 147 148 151 149 144 145 143 133 123 121 127 138 144 141 148 164 167 165 169 173 177 181 184 186 194 201 196 189 183 181 183 186
192 159 164 169 155 123 93 86 86 90 95 99 103 104 105 106 108 110 115 121 127 130 133 135 137 142 146 144 142 147 152 148 147 153 150 140 145 151 145 135 127 121 122 132 139 146 153 155 158 167 175 182 192 195 193 189 186 185 181 175 173 172 173
Height
684 685 687 689 690 692 694 696 699 704 708 712 717 722 726 729 732 735 738 741 744 747 750 753 756 758 761 764 767 770 773 775 777 779 782 784 786 788 790 791 793 795 797 798 800 802 804 806 807 808 810 813 814 815 816 817 819 820 820 821 822 823 825
680 683 683 685 686 687 688 690 693 697 702 707 713 718 722 724 727 730 733 736 740 744 746 749 752 754 757 760 764 767 769 772 774 777 779 781 783 785 787 789 790 792 794 796 798 800 802 803 804 806 808 810 812 813 814 815 817 819 820 821 822 823 824
676 679 679 681 681 682 684 686 689 692 696 702 707 713 717 720 722 725 728 732 736 740 743 746 748 750 753 756 760 763 766 769 771 773 775 777 780 782 784 786 788 790 792 793 795 797 798 800 802 804 805 807 809 810 811 813 815 817 819 820 821 822 823
672 672 674 676 676 679 681 683 686 688 691 696 701 707 711 715 719 721 724 728 731 735 739 741 744 746 749 752 756 759 762 765 767 769 772 774 777 779 781 783 785 787 788 790 792 794 796 798 800 802 803 804 806 807 809 812 813 816 817 818 820 821 822
668 668 669 670 672 676 679 681 683 684 688 693 697 702 706 711 715 718 721 724 727 731 734 737 740 743 746 749 752 755 758 761 764 766 769 771 774 776 778 780 781 783 785 787 789 791 793 795 797 799 801 802 804 806 808 810 812 814 815 817 818 819 820
664 663 663 664 665 669 672 676 678 680 686 690 694 699 704 708 711 714 717 721 724 728 731 734 737 739 742 745 748 751 754 757 760 763 766 768 770 772 774 776 778 779 781 783 786 788 790 792 793 795 798 800 802 804 806 808 810 811 813 815 816 817 818
656 656 656 657 659 662 665 669 673 677 684 688 692 697 701 704 707 710 713 716 720 724 727 730 732 735 738 741 744 747 750 753 756 759 762 765 767 769 770 772 774 776 778 780 783 785 787 789 790 792 795 797 799 801 802 804 806 808 810 812 813 814 816
646 649 651 652 654 658 661 664 668 674 680 686 690 693 696 699 702 705 708 711 715 719 721 724 727 730 733 736 740 743 746 749 752 755 759 761 763 764 766 768 770 772 775 777 779 781 783 785 787 789 792 794 796 797 799 801 803 805 806 808 810 811 813
641 644 646 649 653 656 658 660 663 667 675 681 685 688 692 695 697 700 703 706 710 713 716 719 723 726 729 733 736 739 742 746 748 751 754 757 758 760 762 765 767 770 772 774 776 778 779 781 783 785 787 789 791 793 795 797 799 801 803 804 806 808 809
639 643 645 648 651 652 654 657 660 664 669 675 679 683 688 691 694 696 699 702 704 707 711 715 718 722 725 729 732 736 739 742 744 747 750 752 754 755 758 761 764 766 768 770 772 774 775 777 779 781 782 784 786 788 790 792 794 797 799 800 802 804 805
640 644 645 647 649 650 652 656 659 662 664 668 673 678 683 687 690 692 694 697 699 702 706 710 714 718 721 724 728 732 734 737 740 743 745 747 749 751 755 758 760 762 764 766 768 770 771 773 775 777 778 780 782 784 785 787 789 792 794 796 798 800 802
639 641 643 645 646 649 652 653 656 658 659 663 668 673 677 682 685 688 691 693 695 698 702 706 709 713 716 720 724 727 730 733 736 738 740 742 745 747 751 754 756 758 760 762 764 766 768 769 771 773 774 776 778 780 781 783 784 787 789 792 794 797 799
638 638 640 641 643 647 650 652 654 654 656 659 663 668 673 677 681 685 688 690 692 695 697 701 705 708 712 715 718 722 725 728 731 733 736 738 741 744 747 749 752 753 755 758 760 763 764 765 767 769 771 773 774 776 778 779 781 783 786 788 791 793 796
638 639 639 640 643 646 648 651 652 652 654 656 660 665 669 673 677 681 684 687 689 691 693 697 700 703 707 711 714 717 720 723 726 729 732 734 737 740 743 745 748 749 751 754 757 759 761 762 764 765 767 769 771 773 775 777 779 780 783 786 788 791 793
640 641 641 642 644 645 646 649 650 651 653 654 658 662 666 670 674 676 680 683 685 687 689 692 696 699 703 706 710 713 716 720 723 725 728 731 733 736 739 741 744 746 748 751 754 756 759 760 762 763 765 767 769 772 773 775 777 778 781 785 787 788 790
638 639 641 643 645 645 645 646 647 649 652 654 656 659 662 666 669 672 675 678 681 684 685 689 692 695 699 702 706 710 713 716 720 722 725 727 730 732 735 738 741 743 746 748 750 753 756 758 760 761 763 765 768 770 772 773 776 777 780 783 785 785 787
634 634 638 641 642 643 643 644 645 647 649 652 653 656 659 663 665 669 672 674 677 680 682 685 688 692 695 698 702 706 710 713 716 719 721 724 726 729 732 735 738 740 743 746 748 750 753 755 756 758 760 763 766 768 770 771 773 774 775 778 781 782 784
629 630 634 636 637 638 640 641 642 644 646 647 650 653 657 660 663 666 667 670 673 676 679 681 684 688 692 695 699 703 706 710 713 715 718 721 724 727 730 733 736 738 741 743 745 747 749 752 753 755 757 759 762 765 767 769 770 771 773 775 777 780 782
623 624 627 630 632 633 634 635 636 639 640 642 646 649 652 656 661 663 664 666 670 673 676 678 680 685 688 692 696 699 702 706 709 712 716 718 722 725 728 731 733 736 739 741 743 745 747 749 751 753 755 757 759 762 764 767 768 769 771 773 776 779 781
618 618 619 622 625 626 628 629 631 633 634 637 641 644 648 653 657 661 663 665 668 671 673 675 678 682 685 689 693 696 700 704 707 710 714 716 720 723 725 728 731 733 737 739 742 743 745 747 749 751 753 755 757 759 762 764 766 767 769 772 774 778 780
615 614 614 616 619 622 624 625 627 629 630 634 637 641 646 650 654 659 662 663 665 668 670 673 676 679 683 687 690 694 698 701 704 708 711 714 718 720 723 726 729 732 735 737 739 741 742 744 747 749 752 753 755 757 759 761 763 766 768 770 772 775 778
610 610 610 611 614 617 618 618 621 623 625 629 634 638 642 646 650 656 659 661 663 666 668 671 674 677 681 684 688 692 695 699 703 706 709 712 716 719 722 725 727 730 733 735 738 740 740 743 745 747 750 752 754 756 757 760 762 764 766 768 770 773 776
602 604 604 604 605 608 609 610 612 616 621 625 629 633 637 642 647 652 655 658 660 663 666 669 672 675 679 682 686 690 694 697 701 704 708 711 714 718 721 724 727 729 732 735 737 739 740 741 743 746 748 751 753 755 756 758 759 761 763 765 768 770 773
598 599 600 600 601 601 602 604 606 610 615 619 623 627 632 637 643 648 652 654 657 660 663 666 670 674 678 682 686 689 693 697 700 703 707 710 713 717 720 723 727 729 731 734 737 738 739 740 742 745 747 749 752 754 754 755 757 758 760 762 765 768 770
595 595 595 595 596 596 596 598 600 605 610 614 619 623 627 633 639 644 649 651 653 657 660 664 669 673 676 681 685 689 692 695 699 702 706 709 713 716 719 722 725 728 730 734 736 738 739 740 742 745 746 749 752 752 752 754 755 757 759 761 763 765 767
592 590 590 589 589 589 591 593 597 602 607 611 615 619 623 629 636 642 646 648 651 654 657 661 667 671 676 680 684 687 691 694 698 701 704 708 712 714 717 720 723 726 729 732 735 737 739 740 742 744 746 748 750 751 751 752 754 756 758 760 762 763 765
587 584 583 584 585 586 589 593 596 601 606 609 614 618 622 627 634 640 645 647 649 651 654 659 665 669 674 678 682 686 690 693 697 700 704 708 711 713 717 719 722 725 727 731 734 736 738 741 743 744 746 747 749 750 750 751 753 755 757 759 760 762 764
585 586 585 582 583 587 590 594 598 603 607 611 614 617 620 625 632 639 644 646 646 648 652 658 663 668 672 676 681 685 689 693 697 701 705 708 710 713 716 719 721 724 727 730 733 735 738 741 743 744 746 746 747 748 749 750 752 753 755 756 758 760 762
589 591 593 590 589 588 590 594 600 604 608 611 615 617 620 625 632 638 643 645 646 647 652 656 661 666 671 675 680 684 688 692 696 700 703 706 708 712 715 718 721 723 726 730 733 736 738 740 742 744 745 745 746 747 748 749 750 751 752 754 756 758 760
595 591 592 596 596 593 592 596 600 604 608 612 615 618 622 626 633 638 643 645 645 647 651 656 661 666 670 675 679 683 687 691 695 698 700 703 707 710 714 718 721 724 727 731 733 736 738 740 742 743 742 743 744 745 746 747 747 749 750 751 753 756 757
599 592 590 594 597 597 598 601 602 605 609 612 615 619 623 628 633 638 642 645 646 647 651 656 661 666 670 675 679 683 687 691 694 696 699 702 705 708 711 716 721 725 728 731 733 735 737 738 740 740 740 741 742 743 744 745 746 747 748 749 751 753 755
604 595 592 595 597 599 601 604 607 609 611 614 618 622 627 631 634 638 642 645 648 649 652 656 661 667 671 675 679 683 687 690 693 696 699 701 703 705 708 713 719 724 728 731 733 735 735 736 737 737 738 739 741 742 743 744 745 745 746 748 750 751 753
617 605 599 597 598 601 603 605 609 612 614 618 622 626 630 635 637 640 644 648 650 652 654 658 663 667 672 677 681 684 687 691 694 698 701 703 705 707 709 712 717 722 727 729 731 732 733 734 734 735 736 738 740 741 743 743 744 744 745 746 748 749 750
627 622 617 608 602 602 604 607 612 616 620 624 627 630 634 637 641 645 647 649 652 653 655 659 664 669 674 678 682 686 690 693 696 699 702 705 707 709 711 713 716 721 724 727 729 730 730 731 732 733 735 737 739 740 741 742 743 743 743 745 745 746 748
630 631 633 629 621 614 611 614 618 622 625 628 631 633 636 640 644 647 647 649 652 653 656 661 666 671 676 680 684 688 692 695 697 699 702 705 708 710 712 714 716 719 722 725 726 727 728 729 730 732 734 736 738 739 740 741 742 742 742 743 744 745 747
635 634 637 641 639 632 626 625 626 626 628 632 635 638 640 643 645 646 647 650 652 655 659 664 668 673 677 681 686 690 693 695 697 700 703 706 708 710 712 715 717 719 721 723 725 726 727 729 730 732 734 735 737 738 739 740 740 740 742 743 744 745 746
643 642 643 648 649 643 636 632 630 630 632 635 639 641 642 644 645 647 649 652 655 658 662 666 670 674 678 682 686 689 691 693 696 700 704 707 709 711 713 715 717 719 721 723 725 726 727 728 730 732 733 735 736 738 738 739 739 740 741 743 745 746 746
649 647 649 650 649 644 637 633 633 634 636 638 641 642 644 646 648 650 652 655 658 661 664 667 670 674 677 681 684 687 689 692 696 700 703 706 709 712 714 715 717 719 721 723 724 726 727 728 730 731 733 734 736 737 737 738 739 740 740 742 744 745 746